Total_Precipitation_Accumulation
1.79 1.69 1.27 0.72 0.54 0.39 0.32 0.34 0.33 0.28 0.31 0.35 0.36 0.34 0.37 0.38 0.37 0.36 0.34 0.30 0.33 0.46 0.65 0.74 0.79 1.02 1.21 1.29 1.39 1.48 1.57 1.63 1.77 1.78 1.77 1.76 1.59 1.40 1.24 1.12 1.03 0.97 0.95 0.97
1.56 1.18 0.72 0.53 0.50 0.45 0.40 0.40 0.38 0.32 0.29 0.36 0.38 0.35 0.31 0.28 0.33 0.36 0.35 0.34 0.36 0.43 0.54 0.64 0.70 0.80 0.98 1.11 1.28 1.41 1.51 1.65 1.66 1.66 1.77 1.90 1.98 1.80 1.52 1.37 1.24 1.14 1.10 1.10
1.18 0.73 0.57 0.64 0.60 0.55 0.44 0.36 0.32 0.32 0.35 0.38 0.37 0.36 0.27 0.26 0.33 0.36 0.36 0.36 0.34 0.36 0.42 0.49 0.57 0.72 0.86 0.97 1.14 1.36 1.50 1.65 1.67 1.71 1.92 2.07 2.19 2.03 1.73 1.39 1.23 1.22 1.25 1.26
1.04 0.64 0.61 0.71 0.57 0.48 0.45 0.25 0.24 0.27 0.40 0.45 0.37 0.50 0.32 0.30 0.34 0.36 0.39 0.37 0.33 0.32 0.36 0.40 0.48 0.59 0.71 0.86 1.00 1.12 1.30 1.50 1.67 1.71 1.75 1.80 1.87 1.83 1.62 1.50 1.42 1.44 1.45 1.44
0.98 0.67 0.68 0.73 0.50 0.41 0.39 0.25 0.28 0.29 0.39 0.43 0.32 0.45 0.37 0.22 0.26 0.34 0.42 0.43 0.40 0.38 0.38 0.39 0.47 0.57 0.63 0.75 0.96 1.05 1.14 1.33 1.54 1.65 1.69 1.80 1.76 1.76 1.84 1.80 1.69 1.61 1.56 1.53
0.73 0.60 0.71 0.61 0.46 0.42 0.40 0.39 0.43 0.41 0.53 0.56 0.26 0.36 0.39 0.27 0.28 0.30 0.31 0.37 0.42 0.43 0.49 0.52 0.56 0.57 0.58 0.63 0.82 1.02 1.05 1.15 1.29 1.50 1.68 1.73 1.66 1.68 1.72 1.73 1.69 1.68 1.67 1.63
0.97 0.73 0.59 0.52 0.62 0.55 0.48 0.59 0.84 0.87 0.77 0.42 0.19 0.28 0.34 0.26 0.28 0.29 0.28 0.32 0.38 0.46 0.50 0.55 0.58 0.53 0.52 0.57 0.68 0.85 0.97 1.08 1.14 1.29 1.43 1.57 1.63 1.62 1.65 1.68 1.66 1.59 1.51 1.44
0.93 0.99 0.61 0.49 0.58 0.60 0.46 0.44 0.56 0.56 0.36 0.24 0.20 0.28 0.29 0.25 0.25 0.22 0.23 0.26 0.32 0.38 0.41 0.44 0.51 0.52 0.53 0.54 0.58 0.63 0.68 0.77 0.84 0.92 1.03 1.15 1.33 1.43 1.39 1.45 1.49 1.46 1.39 1.37
0.54 0.61 0.39 0.33 0.34 0.38 0.48 0.40 0.25 0.42 0.35 0.32 0.24 0.22 0.22 0.19 0.20 0.20 0.22 0.26 0.32 0.38 0.41 0.42 0.49 0.50 0.54 0.57 0.59 0.58 0.57 0.61 0.71 0.74 0.79 0.82 0.96 1.10 1.16 1.22 1.22 1.18 1.17 1.23
0.29 0.39 0.32 0.28 0.34 0.35 0.34 0.32 0.38 0.63 0.54 0.41 0.23 0.19 0.27 0.22 0.18 0.20 0.24 0.26 0.30 0.41 0.41 0.40 0.45 0.47 0.50 0.55 0.58 0.56 0.55 0.55 0.65 0.71 0.76 0.76 0.79 0.87 1.00 1.08 1.03 1.02 1.03 1.06
0.23 0.35 0.35 0.33 0.34 0.28 0.23 0.31 0.35 0.41 0.37 0.37 0.23 0.24 0.27 0.24 0.21 0.22 0.25 0.28 0.36 0.41 0.42 0.42 0.44 0.47 0.51 0.56 0.56 0.53 0.56 0.57 0.60 0.64 0.65 0.65 0.68 0.73 0.80 0.87 0.90 0.91 0.95 0.94
0.14 0.25 0.31 0.22 0.14 0.13 0.18 0.19 0.24 0.43 0.30 0.22 0.23 0.27 0.25 0.22 0.21 0.21 0.23 0.27 0.33 0.36 0.40 0.39 0.40 0.44 0.48 0.50 0.46 0.45 0.50 0.53 0.58 0.60 0.58 0.58 0.60 0.62 0.65 0.69 0.75 0.77 0.81 0.85
0.16 0.25 0.34 0.32 0.26 0.24 0.25 0.15 0.17 0.33 0.48 0.33 0.28 0.28 0.24 0.19 0.17 0.17 0.19 0.21 0.25 0.27 0.28 0.28 0.29 0.29 0.30 0.32 0.32 0.37 0.41 0.38 0.41 0.43 0.42 0.44 0.46 0.50 0.55 0.58 0.59 0.63 0.70 0.75
0.36 0.30 0.27 0.31 0.30 0.37 0.35 0.17 0.17 0.50 0.65 0.27 0.16 0.21 0.20 0.18 0.19 0.20 0.19 0.18 0.18 0.19 0.20 0.21 0.22 0.19 0.20 0.23 0.26 0.29 0.27 0.29 0.32 0.32 0.31 0.33 0.37 0.41 0.44 0.46 0.45 0.47 0.51 0.57
0.36 0.34 0.20 0.23 0.29 0.45 0.38 0.22 0.20 0.34 0.27 0.26 0.15 0.16 0.18 0.19 0.22 0.23 0.21 0.17 0.14 0.13 0.13 0.16 0.17 0.16 0.17 0.18 0.20 0.21 0.23 0.29 0.34 0.35 0.34 0.32 0.33 0.35 0.38 0.39 0.40 0.39 0.41 0.42
0.32 0.35 0.27 0.30 0.28 0.38 0.31 0.15 0.13 0.15 0.12 0.13 0.11 0.15 0.15 0.19 0.23 0.26 0.23 0.16 0.11 0.10 0.09 0.10 0.11 0.12 0.13 0.14 0.18 0.22 0.27 0.35 0.41 0.43 0.38 0.34 0.34 0.34 0.31 0.30 0.31 0.31 0.33 0.34
0.35 0.44 0.58 0.48 0.24 0.28 0.25 0.14 0.13 0.12 0.09 0.09 0.14 0.13 0.13 0.21 0.25 0.23 0.17 0.11 0.08 0.07 0.07 0.07 0.08 0.09 0.12 0.16 0.23 0.31 0.36 0.43 0.45 0.48 0.43 0.37 0.34 0.32 0.29 0.27 0.28 0.30 0.33 0.36
0.22 0.41 0.66 0.60 0.38 0.37 0.24 0.17 0.15 0.12 0.09 0.06 0.08 0.07 0.09 0.13 0.15 0.13 0.10 0.09 0.06 0.04 0.04 0.04 0.05 0.06 0.08 0.13 0.22 0.30 0.37 0.48 0.51 0.50 0.48 0.45 0.45 0.45 0.47 0.47 0.48 0.49 0.49 0.50
0.08 0.28 0.49 0.43 0.32 0.17 0.09 0.10 0.12 0.13 0.10 0.05 0.05 0.04 0.04 0.06 0.12 0.17 0.14 0.10 0.07 0.04 0.03 0.02 0.03 0.04 0.05 0.08 0.14 0.23 0.35 0.50 0.61 0.67 0.65 0.65 0.67 0.71 0.75 0.77 0.77 0.77 0.79 0.78
0.04 0.13 0.31 0.28 0.24 0.10 0.04 0.02 0.03 0.05 0.08 0.03 0.02 0.02 0.02 0.04 0.10 0.16 0.17 0.13 0.11 0.09 0.07 0.05 0.05 0.06 0.09 0.12 0.18 0.30 0.47 0.61 0.71 0.74 0.77 0.81 0.85 0.90 0.87 0.86 0.82 0.75 0.71 0.70
0.10 0.16 0.24 0.23 0.21 0.04 0.01 0.00 0.01 0.05 0.08 0.02 0.01 0.01 0.01 0.02 0.05 0.06 0.11 0.15 0.14 0.15 0.17 0.17 0.18 0.20 0.22 0.25 0.34 0.47 0.58 0.67 0.70 0.70 0.71 0.73 0.72 0.72 0.69 0.66 0.63 0.58 0.53 0.47
0.04 0.08 0.09 0.10 0.15 0.06 0.01 0.01 0.02 0.03 0.02 0.01 0.01 0.01 0.02 0.02 0.02 0.03 0.04 0.08 0.12 0.16 0.22 0.29 0.34 0.37 0.37 0.40 0.46 0.52 0.54 0.54 0.52 0.49 0.47 0.44 0.39 0.35 0.34 0.34 0.34 0.33 0.31 0.27
0.03 0.05 0.05 0.06 0.07 0.03 0.01 0.01 0.02 0.02 0.02 0.02 0.01 0.01 0.02 0.02 0.02 0.02 0.02 0.03 0.05 0.07 0.09 0.14 0.20 0.24 0.25 0.25 0.27 0.29 0.26 0.23 0.19 0.16 0.14 0.13 0.10 0.09 0.09 0.08 0.09 0.11 0.14 0.15
0.06 0.03 0.03 0.04 0.04 0.02 0.02 0.02 0.02 0.02 0.02 0.02 0.02 0.03 0.03 0.03 0.03 0.03 0.02 0.02 0.03 0.03 0.03 0.04 0.06 0.07 0.07 0.08 0.08 0.09 0.07 0.05 0.04 0.03 0.03 0.03 0.03 0.03 0.03 0.04 0.04 0.06 0.07 0.09
0.08 0.05 0.05 0.04 0.03 0.02 0.02 0.02 0.02 0.02 0.01 0.02 0.02 0.02 0.03 0.04 0.04 0.04 0.04 0.03 0.03 0.03 0.03 0.04 0.04 0.04 0.04 0.04 0.05 0.05 0.05 0.04 0.04 0.03 0.03 0.03 0.03 0.04 0.04 0.04 0.04 0.06 0.07 0.09
0.05 0.05 0.07 0.07 0.03 0.03 0.02 0.01 0.01 0.01 0.01 0.02 0.02 0.02 0.02 0.03 0.04 0.04 0.03 0.04 0.04 0.05 0.04 0.04 0.04 0.05 0.06 0.06 0.07 0.07 0.08 0.08 0.07 0.07 0.07 0.07 0.07 0.07 0.07 0.08 0.08 0.09 0.11 0.13